Wind_Speed
6 6 5 5 4 5 6 6 7 7 7 6 7 8 7 6 6 7 8 8 8 9 9 9 10 9 8 8 7 7 7 7 7 7 7 6 6 6 6 7 7 7 8 9
6 7 6 5 5 5 6 6 6 6 6 6 6 7 7 7 7 7 8 8 9 10 10 10 9 8 7 8 7 7 7 7 7 7 6 6 6 6 6 7 7 7 8 8
7 7 7 5 5 5 6 7 7 7 7 7 6 7 7 7 7 7 8 8 9 9 9 9 8 7 8 8 8 7 6 7 7 7 6 6 5 6 7 7 7 7 7 7
8 8 8 8 7 7 7 7 6 6 6 7 7 8 8 7 6 7 7 8 9 8 8 8 8 8 8 8 7 7 6 6 7 7 6 5 5 6 7 7 6 7 7 8
10 10 10 10 9 7 7 7 7 6 6 7 7 8 7 7 7 7 8 8 9 8 8 8 9 9 8 8 7 7 7 7 6 6 6 5 5 6 6 7 7 8 9 10
11 11 11 10 9 8 8 7 7 8 8 8 9 9 8 8 8 8 8 7 8 8 8 9 9 9 8 8 8 7 6 6 6 6 6 6 6 7 7 7 8 9 10 12
12 12 11 10 10 9 8 8 8 9 9 10 10 10 9 8 8 8 7 7 8 8 8 9 9 9 8 8 8 7 6 6 6 6 6 7 7 7 8 9 9 10 12 12
12 12 11 10 10 10 9 10 10 10 10 10 10 9 8 8 8 8 7 7 8 8 8 8 8 8 8 8 7 6 6 6 6 7 7 7 8 8 9 10 11 11 12 13
13 13 12 12 12 12 12 12 11 12 12 11 10 9 8 8 8 8 8 8 8 8 7 8 8 8 7 7 7 7 7 7 7 7 7 8 9 9 10 11 12 13 14 15
15 15 14 14 13 13 13 13 13 11 11 11 10 10 8 8 8 8 8 8 8 8 7 8 8 8 8 7 7 7 7 8 8 8 8 8 9 10 11 12 13 14 15 16
15 14 14 13 13 13 13 13 12 12 11 11 11 9 8 7 7 7 8 8 8 8 9 8 8 8 8 7 7 7 7 8 9 9 10 10 10 11 12 13 14 15 15 16
16 15 15 15 14 14 15 14 13 12 12 11 11 10 9 8 8 8 8 8 8 9 9 9 9 9 8 8 7 8 8 9 10 10 11 11 11 12 13 14 14 15 15 15
17 16 16 16 15 16 16 14 13 12 12 12 11 10 10 9 9 9 9 9 8 8 9 8 8 8 7 8 8 9 9 10 10 10 11 11 12 13 14 14 15 15 16 16
18 18 17 17 16 15 15 15 14 13 12 12 11 10 10 10 10 10 10 10 9 9 8 8 7 7 8 8 9 9 10 10 10 10 11 12 13 14 15 15 15 16 16 15
19 19 19 18 17 16 16 16 15 14 13 12 11 11 11 11 11 11 11 11 10 10 9 9 8 8 9 9 10 10 10 11 11 11 12 12 13 14 15 16 16 16 16 15
20 20 20 19 18 17 17 17 16 15 14 13 12 12 12 12 12 12 11 11 11 10 10 10 9 9 9 10 11 11 11 11 11 12 13 14 14 15 16 16 17 16 16 16
22 21 20 20 19 18 17 17 17 16 15 15 14 13 13 13 13 13 13 12 12 11 10 10 10 9 10 10 11 11 11 12 12 13 14 15 15 16 16 17 17 17 16 16
22 21 21 21 20 19 18 17 17 17 16 16 15 14 13 14 14 14 13 13 12 12 11 11 11 10 10 11 12 12 12 13 13 14 14 15 16 16 17 17 17 17 17 17
22 21 20 21 20 20 19 18 18 17 17 17 16 15 15 14 14 14 14 14 13 13 13 12 12 12 12 13 13 13 13 14 15 15 15 16 17 17 17 17 17 17 18 18
22 22 21 21 21 20 20 19 18 18 19 18 17 16 16 16 15 15 15 15 15 15 14 14 14 14 14 14 14 14 15 16 16 16 16 16 17 17 17 17 17 18 18 18
23 23 22 22 22 21 21 20 20 20 19 18 17 17 17 17 16 16 16 15 16 16 15 15 15 15 15 15 15 16 16 17 17 17 17 17 17 17 17 18 18 18 18 18
24 24 24 23 23 23 23 23 23 21 20 19 19 19 19 18 17 17 17 16 16 17 16 17 17 16 17 17 17 17 17 17 17 17 17 17 17 17 18 18 18 18 19 18
25 25 25 24 24 24 25 25 25 23 21 20 20 20 19 19 19 19 18 18 18 18 18 18 18 18 17 17 17 17 17 17 17 17 18 18 18 18 19 19 19 19 19 19
24 24 25 24 25 25 25 25 25 25 23 22 22 22 22 21 21 21 20 20 20 20 20 20 20 19 19 18 18 18 18 18 18 18 18 18 18 18 19 19 20 19 18 19
24 24 24 24 24 25 25 25 25 24 24 24 24 24 24 23 23 22 22 21 21 21 21 21 20 20 19 19 19 19 19 19 18 18 18 18 18 18 19 20 20 19 19 19
24 24 24 25 24 24 25 25 25 25 25 25 24 24 23 23 23 22 22 22 22 22 22 21 21 20 20 20 20 19 19 18 18 18 18 19 19 19 19 20 19 19 19 19
25 24 25 25 25 25 25 24 24 24 24 23 24 24 24 24 24 23 23 23 22 22 22 22 22 21 20 20 19 19 19 19 19 19 19 19 19 20 20 19 19 18 18 18
Wind_Direction
318 318 314 316 329 330 324 333 343 343 336 334 335 332 330 328 328 327 327 326 326 327 328 332 330 328 329 329 325 325 326 328 328 318 314 312 309 300 294 299 304 301 299 306
300 304 301 315 318 318 327 334 343 349 348 341 336 333 332 327 325 326 327 329 328 326 328 331 331 332 338 339 334 328 329 331 333 330 320 313 304 301 299 303 305 302 305 309
285 292 296 301 315 314 320 330 341 343 346 342 341 338 335 329 322 325 329 331 331 330 331 335 336 337 338 337 335 332 332 332 334 337 332 317 302 300 305 308 307 308 313 320
283 286 291 301 305 307 314 317 328 325 328 333 337 337 335 333 333 329 328 331 334 335 338 341 343 338 334 334 333 334 335 336 335 335 338 334 324 318 317 314 315 318 320 319
284 288 288 296 303 305 311 310 307 310 314 321 325 327 327 328 326 325 326 329 334 335 336 341 342 338 336 337 334 329 329 333 334 334 333 329 325 328 324 321 320 319 319 317
282 290 290 294 302 303 301 297 296 298 304 309 312 315 318 319 317 318 322 327 332 331 330 333 335 334 335 336 333 330 329 331 332 332 329 325 322 324 322 321 320 319 320 318
285 288 290 290 294 294 289 296 295 294 296 300 303 309 314 313 314 318 319 324 330 331 331 333 334 333 330 333 332 330 330 332 333 333 327 325 323 321 320 320 320 320 323 323
284 283 285 289 288 285 283 290 293 291 293 297 303 303 307 307 307 309 312 316 322 325 329 333 336 336 334 335 335 333 333 334 333 331 328 326 325 324 324 323 323 323 323 323
281 281 281 283 280 278 278 283 287 287 286 294 301 299 299 299 300 305 309 316 319 321 325 330 333 334 334 331 334 334 332 330 330 328 323 323 323 325 325 325 323 321 321 322
283 283 282 283 284 280 279 281 287 290 287 289 294 295 296 297 298 302 306 312 316 319 320 324 326 327 329 331 330 325 326 327 328 328 322 320 322 323 324 324 323 321 321 323
281 284 284 282 281 278 279 282 287 287 284 285 289 290 292 292 294 298 305 308 312 317 318 316 318 321 323 325 325 325 328 328 325 326 325 321 325 324 324 324 323 324 325 326
277 278 278 281 283 277 278 279 282 283 280 280 283 285 283 283 286 290 295 301 306 310 313 314 315 314 315 316 318 320 321 322 324 324 326 324 328 329 326 323 324 325 326 327
274 275 276 279 278 275 274 274 277 277 275 274 276 280 279 277 279 283 288 294 300 305 307 309 313 316 315 314 317 320 319 319 320 323 325 325 325 326 324 323 326 329 328 326
269 269 269 270 270 271 269 267 269 271 272 275 274 275 277 275 276 279 284 288 292 296 299 301 305 307 311 316 320 321 322 322 321 321 322 323 324 325 326 327 328 329 329 328
266 267 266 266 266 267 267 265 265 265 266 268 269 271 273 273 273 276 281 285 288 288 288 291 294 297 301 308 312 316 318 321 323 324 325 325 325 327 328 329 329 329 330 329
264 265 264 264 265 265 265 263 263 262 263 264 266 268 270 270 271 272 274 278 283 284 285 286 286 289 294 301 306 310 313 315 318 320 323 326 327 327 326 326 327 328 328 328
264 264 262 262 263 262 261 260 260 260 261 262 264 265 267 269 269 271 271 272 275 276 277 279 281 285 289 296 305 309 310 311 315 317 319 323 325 326 326 326 326 328 329 330
263 264 262 259 260 261 259 257 257 259 260 260 261 263 266 266 268 268 268 270 271 271 272 276 279 281 286 293 300 303 305 308 311 313 316 319 321 322 322 323 324 324 326 327
262 262 261 259 260 261 259 259 258 257 257 258 258 260 263 264 265 265 265 268 267 268 270 273 274 275 281 290 296 300 303 306 309 311 313 314 316 319 321 320 320 319 322 324
258 258 257 257 256 256 255 256 256 255 256 256 255 257 260 262 263 264 263 265 262 262 266 269 271 273 280 289 294 298 302 305 307 309 311 312 314 316 318 318 316 317 319 321
255 255 255 254 252 252 253 253 252 252 251 251 252 253 255 255 257 258 259 264 263 262 265 267 270 275 280 286 292 295 298 301 303 306 308 310 312 314 315 317 318 317 317 318
254 253 253 252 249 250 252 251 249 248 248 248 248 249 252 253 255 258 259 264 266 265 265 267 271 275 280 284 288 292 296 299 302 304 306 308 310 313 316 317 318 317 317 317
254 254 253 252 251 251 251 250 247 247 249 250 250 250 253 255 257 257 260 264 266 266 267 269 272 275 278 281 285 290 294 297 300 302 305 306 308 311 313 316 317 316 315 317
254 255 253 251 249 249 249 249 248 248 251 252 251 251 253 255 257 258 260 263 265 266 267 268 270 273 276 278 282 286 290 294 297 300 303 304 307 309 311 314 314 314 315 316
255 255 253 252 250 249 250 251 252 252 251 253 253 252 252 253 254 256 258 259 261 263 266 268 268 270 272 274 278 283 288 292 295 298 300 301 304 305 308 311 312 312 313 314
255 255 253 252 251 249 249 250 251 252 252 253 252 252 251 251 252 253 255 258 261 263 264 265 266 268 271 274 276 279 284 289 291 294 297 299 301 304 307 309 310 310 310 311
254 254 252 252 252 250 249 250 251 252 253 253 251 251 251 251 252 252 254 257 260 262 263 264 266 268 269 271 274 278 281 285 289 292 295 298 299 301 304 306 308 308 308 309
Height
5820 5818 5817 5817 5816 5815 5814 5813 5812 5811 5809 5809 5807 5806 5805 5804 5803 5802 5801 5800 5798 5796 5794 5792 5790 5788 5787 5785 5783 5782 5780 5779 5777 5776 5774 5773 5772 5771 5771 5770 5769 5768 5766 5765
5818 5817 5816 5816 5815 5814 5813 5812 5811 5810 5809 5807 5806 5805 5804 5803 5802 5801 5799 5798 5797 5795 5793 5791 5789 5787 5785 5783 5782 5780 5778 5777 5776 5774 5773 5772 5771 5770 5769 5768 5767 5766 5765 5763
5817 5816 5815 5815 5814 5813 5812 5811 5810 5808 5808 5806 5805 5804 5803 5801 5800 5799 5798 5797 5795 5793 5791 5789 5787 5785 5784 5782 5780 5779 5777 5776 5775 5773 5772 5771 5770 5769 5768 5767 5766 5764 5763 5761
5815 5815 5814 5815 5812 5812 5811 5809 5808 5807 5806 5805 5804 5803 5801 5800 5799 5798 5797 5795 5793 5791 5789 5788 5786 5784 5782 5781 5779 5778 5776 5775 5773 5772 5771 5770 5769 5768 5767 5765 5764 5763 5761 5759
5812 5812 5811 5811 5810 5810 5809 5808 5807 5806 5804 5803 5802 5801 5800 5799 5798 5797 5795 5793 5792 5790 5788 5787 5785 5783 5781 5779 5778 5776 5775 5774 5772 5771 5770 5769 5768 5767 5766 5764 5763 5761 5759 5757
5810 5809 5808 5810 5809 5807 5807 5806 5805 5804 5803 5802 5801 5800 5799 5798 5796 5795 5793 5792 5790 5789 5787 5785 5784 5782 5780 5778 5776 5775 5773 5772 5771 5770 5769 5768 5767 5766 5764 5763 5761 5759 5757 5755
5807 5806 5805 5806 5805 5805 5806 5805 5803 5802 5801 5799 5798 5797 5797 5795 5794 5793 5792 5790 5789 5787 5786 5784 5782 5780 5779 5777 5775 5774 5772 5771 5770 5769 5768 5767 5766 5764 5763 5761 5759 5757 5755 5752
5803 5803 5805 5803 5803 5803 5802 5801 5800 5799 5798 5796 5795 5795 5794 5793 5792 5791 5790 5789 5788 5786 5784 5783 5781 5779 5777 5776 5774 5772 5771 5770 5769 5768 5767 5765 5764 5763 5761 5759 5757 5754 5752 5749
5801 5802 5800 5799 5798 5798 5797 5797 5797 5796 5795 5794 5793 5792 5792 5791 5790 5789 5788 5787 5786 5785 5783 5782 5780 5778 5776 5775 5773 5772 5770 5769 5768 5767 5765 5764 5763 5761 5759 5757 5754 5752 5749 5746
5796 5796 5795 5795 5794 5794 5794 5794 5793 5792 5792 5791 5791 5790 5789 5789 5788 5787 5787 5786 5784 5783 5782 5780 5779 5777 5776 5774 5772 5771 5769 5768 5767 5765 5764 5762 5760 5759 5757 5754 5751 5748 5745 5742
5791 5792 5791 5791 5790 5790 5790 5790 5789 5789 5788 5788 5787 5787 5787 5786 5786 5785 5785 5784 5783 5781 5780 5779 5777 5776 5774 5773 5771 5770 5768 5767 5765 5764 5762 5760 5758 5756 5754 5751 5748 5745 5742 5739
5788 5788 5787 5787 5786 5786 5786 5786 5786 5785 5785 5784 5784 5784 5784 5784 5783 5783 5782 5781 5780 5779 5778 5777 5775 5774 5772 5771 5769 5768 5767 5765 5763 5762 5760 5758 5756 5753 5751 5748 5745 5742 5739 5736
5783 5783 5782 5782 5781 5781 5781 5781 5781 5781 5781 5781 5781 5781 5780 5780 5780 5780 5780 5779 5778 5777 5776 5774 5773 5771 5770 5769 5768 5766 5765 5763 5761 5759 5758 5756 5753 5750 5748 5745 5742 5739 5735 5732
5777 5777 5776 5777 5777 5776 5776 5776 5776 5777 5777 5777 5777 5777 5776 5776 5777 5776 5776 5775 5775 5774 5773 5772 5771 5770 5768 5767 5766 5764 5762 5760 5758 5757 5755 5753 5750 5747 5745 5742 5739 5736 5732 5729
5771 5770 5770 5771 5771 5771 5771 5771 5772 5772 5773 5773 5773 5773 5773 5773 5773 5773 5772 5772 5771 5770 5770 5769 5768 5767 5766 5765 5763 5762 5760 5758 5756 5754 5752 5750 5747 5745 5742 5739 5736 5733 5729 5726
5764 5764 5764 5765 5765 5765 5766 5766 5767 5768 5768 5768 5769 5769 5769 5769 5769 5769 5769 5768 5767 5767 5766 5765 5765 5764 5763 5762 5761 5759 5757 5756 5754 5752 5749 5747 5744 5742 5739 5736 5733 5730 5726 5723
5756 5757 5758 5758 5759 5759 5760 5760 5761 5762 5763 5763 5763 5764 5764 5764 5764 5764 5764 5764 5763 5763 5762 5762 5761 5761 5760 5759 5757 5756 5754 5752 5751 5748 5746 5744 5741 5738 5735 5732 5729 5726 5723 5719
5749 5750 5751 5751 5752 5753 5754 5754 5755 5756 5757 5758 5758 5758 5759 5759 5759 5760 5760 5759 5759 5759 5758 5758 5757 5757 5756 5755 5754 5752 5751 5749 5747 5745 5743 5740 5738 5735 5732 5729 5726 5723 5719 5716
5741 5742 5743 5744 5745 5746 5747 5748 5749 5750 5751 5752 5752 5753 5753 5754 5754 5754 5754 5754 5754 5754 5754 5753 5753 5752 5752 5751 5749 5748 5746 5745 5743 5741 5739 5737 5734 5731 5728 5725 5722 5718 5715 5712
5733 5734 5735 5736 5738 5739 5740 5741 5742 5744 5745 5745 5746 5747 5748 5748 5749 5749 5749 5749 5749 5748 5748 5748 5748 5748 5747 5746 5745 5743 5742 5740 5738 5737 5735 5732 5730 5727 5724 5721 5718 5714 5711 5708
5725 5727 5728 5729 5730 5732 5733 5734 5735 5736 5738 5738 5739 5740 5741 5742 5743 5743 5743 5743 5743 5743 5743 5743 5743 5743 5742 5741 5740 5739 5737 5736 5734 5732 5730 5727 5725 5722 5719 5716 5713 5710 5707 5704
5717 5719 5720 5721 5723 5724 5725 5726 5728 5729 5731 5732 5732 5733 5735 5736 5736 5737 5737 5737 5737 5737 5737 5737 5737 5737 5736 5736 5735 5734 5732 5731 5729 5727 5725 5722 5720 5718 5715 5712 5708 5705 5702 5699
5710 5711 5712 5713 5715 5716 5718 5719 5720 5722 5723 5725 5726 5727 5728 5729 5730 5731 5732 5732 5731 5731 5731 5731 5731 5731 5731 5730 5729 5728 5727 5725 5723 5721 5719 5717 5714 5712 5709 5706 5703 5700 5697 5694
5702 5703 5704 5705 5707 5708 5710 5711 5712 5714 5716 5718 5719 5720 5721 5722 5723 5724 5724 5725 5725 5725 5725 5725 5725 5725 5724 5724 5723 5722 5721 5719 5717 5715 5713 5711 5709 5706 5704 5701 5698 5695 5692 5689
5693 5695 5696 5697 5699 5700 5702 5703 5705 5706 5708 5710 5711 5712 5713 5714 5716 5717 5717 5717 5718 5718 5718 5718 5718 5718 5718 5717 5717 5716 5714 5713 5711 5709 5707 5705 5703 5701 5698 5695 5693 5690 5687 5684
5685 5686 5688 5689 5691 5692 5694 5695 5697 5699 5700 5701 5703 5704 5705 5706 5707 5708 5709 5710 5710 5711 5711 5711 5711 5711 5710 5710 5710 5709 5708 5707 5705 5703 5701 5699 5697 5695 5692 5690 5687 5685 5682 5679
5676 5678 5679 5680 5682 5683 5685 5686 5688 5690 5692 5693 5695 5696 5697 5698 5699 5701 5701 5702 5703 5703 5703 5704 5704 5704 5703 5703 5702 5701 5701 5700 5699 5697 5695 5693 5691 5689 5687 5684 5682 5679 5677 5674